,,Stat5,,Stat1,,Stat2,,Stat3,,Stat4,,Wind1,,Wind1,
time,status,PA1M_AVG,status,PR1M_SUM,status,RH1M_AVG,status,SR1M_AVG,status,TA1M_AVG,status,W1dAve1m,status,W1sAve1m,
2002-05-20, 00:00:01,VALID,917.989,VALID,0,VALID,97.5028,VALID,0,VALID,20.193,VALID,25,VALID,0.472451,
2002-05-20, 00:01:00,VALID,918.002,VALID,0,VALID,97.5359,VALID,0,VALID,20.2215,VALID,22,VALID,0.493421,
2002-05-20, 00:02:00,VALID,918.017,VALID,0,VALID,97.4837,VALID,-0.0169808,VALID,20.2444,VALID,25,VALID,0.702172,
2002-05-20, 00:03:00,VALID,918.023,VALID,0,VALID,97.3477,VALID,0,VALID,20.2121,VALID,41,VALID,0.556756,
2002-05-20, 00:04:00,VALID,918.046,VALID,0,VALID,97.3896,VALID,0,VALID,20.2089,VALID,42,VALID,0.506123,
2002-05-20, 00:05:00,VALID,918.051,VALID,0,VALID,97.4418,VALID,0,VALID,20.2285,VALID,42,VALID,0.375,
2002-05-20, 00:06:00,VALID,918.05,VALID,0,VALID,97.4214,VALID,0,VALID,20.2186,VALID,42,VALID,0.0318834,
2002-05-20, 00:07:01,VALID,918.033,VALID,0,VALID,97.4075,VALID,-0.0169808,VALID,20.2091,VALID,42,VALID,0,
2002-05-20, 00:08:00,VALID,918.013,VALID,0,VALID,97.4761,VALID,0,VALID,20.2057,VALID,42,VALID,0,
2002-05-20, 00:09:00,VALID,917.992,VALID,0,VALID,97.3006,VALID,-0.0509425,VALID,20.2067,VALID,42,VALID,0.0689787,
2002-05-20, 00:10:00,VALID,917.977,VALID,0,VALID,97.0845,VALID,-0.0849042,VALID,20.1749,VALID,42,VALID,0.0252757,
2002-05-20, 00:11:00,VALID,917.943,VALID,0,VALID,97.0438,VALID,-0.0679233,VALID,20.1361,VALID,42,VALID,0.0447635,
2002-05-20, 00:12:00,VALID,917.932,VALID,0,VALID,97.0285,VALID,-0.0679233,VALID,20.1103,VALID,42,VALID,0.205566,
2002-05-20, 00:13:00,VALID,917.91,VALID,0,VALID,97.1163,VALID,-0.101885,VALID,20.1038,VALID,43,VALID,0.334882,
2002-05-20, 00:14:00,VALID,917.888,VALID,0,VALID,97.2256,VALID,-0.0849042,VALID,20.1229,VALID,45,VALID,0.360609,
2002-05-20, 00:15:00,VALID,917.882,VALID,0,VALID,96.9535,VALID,-0.0849042,VALID,20.117,VALID,56,VALID,0.494449,
2002-05-20, 00:16:01,VALID,917.867,VALID,0,VALID,96.6508,VALID,-0.101885,VALID,20.0653,VALID,77,VALID,0.604611,
2002-05-20, 00:17:00,VALID,917.845,VALID,0,VALID,96.5733,VALID,-0.0509425,VALID,20.0093,VALID,116,VALID,0.625689,
2002-05-20, 00:18:00,VALID,917.84,VALID,0,VALID,96.2439,VALID,-0.0849042,VALID,19.9673,VALID,134,VALID,0.874578,
2002-05-20, 00:19:00,VALID,917.828,VALID,0,VALID,96.4639,VALID,-0.0849042,VALID,19.9286,VALID,142,VALID,1.00592,
2002-05-20, 00:20:00,VALID,917.833,VALID,0,VALID,96.9319,VALID,-0.0849042,VALID,19.9708,VALID,144,VALID,1.28357,
2002-05-20, 00:21:01,VALID,917.839,VALID,0,VALID,97.1684,VALID,-0.0169808,VALID,20.0034,VALID,139,VALID,0.924959,
2002-05-20, 00:22:00,VALID,917.851,VALID,0,VALID,97.2803,VALID,-0.0849042,VALID,19.9867,VALID,131,VALID,0.896176,
2002-05-20, 00:23:01,VALID,917.869,VALID,0,VALID,97.5359,VALID,-0.0849042,VALID,19.9843,VALID,147,VALID,1.27782,
2002-05-20, 00:24:00,VALID,917.88,VALID,0,VALID,97.7495,VALID,0,VALID,19.9663,VALID,147,VALID,1.01746,
2002-05-20, 00:25:00,VALID,917.884,VALID,0,VALID,97.9148,VALID,0.0169808,VALID,19.9532,VALID,152,VALID,0.786951,
2002-05-20, 00:26:01,VALID,917.88,VALID,0,VALID,98.0598,VALID,0.0339617,VALID,19.9338,VALID,147,VALID,0.630615,
2002-05-20, 00:27:00,VALID,917.884,VALID,0,VALID,98.192,VALID,0.0169808,VALID,19.94,VALID,141,VALID,0.425042,
2002-05-20, 00:28:01,VALID,917.886,VALID,0,VALID,98.248,VALID,0.0169808,VALID,19.9383,VALID,115,VALID,0.400699,
2002-05-20, 00:29:00,VALID,917.887,VALID,0,VALID,98.2035,VALID,0,VALID,19.9117,VALID,119,VALID,0.54153,
2002-05-20, 00:30:01,VALID,917.889,VALID,0,VALID,98.2861,VALID,0,VALID,19.8826,VALID,126,VALID,0.534299,
2002-05-20, 00:31:00,VALID,917.896,VALID,0,VALID,98.3357,VALID,0.0169808,VALID,19.8729,VALID,120,VALID,0.710708,
2002-05-20, 00:32:00,VALID,917.882,VALID,0,VALID,98.4031,VALID,0.0169808,VALID,19.8568,VALID,85,VALID,0.598395,
2002-05-20, 00:33:00,VALID,917.858,VALID,0,VALID,98.454,VALID,0.0169808,VALID,19.8503,VALID,48,VALID,0.821496,
2002-05-20, 00:34:00,VALID,917.851,VALID,0,VALID,98.4896,VALID,0,VALID,19.8438,VALID,37,VALID,0.799831,
2002-05-20, 00:35:01,VALID,917.819,VALID,0,VALID,98.6028,VALID,0.0339617,VALID,19.8563,VALID,38,VALID,0.755757,
2002-05-20, 00:36:00,VALID,917.802,VALID,0,VALID,98.6765,VALID,0,VALID,19.9087,VALID,25,VALID,0.780428,
2002-05-20, 00:37:01,VALID,917.78,VALID,0,VALID,98.6841,VALID,0,VALID,19.9082,VALID,25,VALID,0.679878,
2002-05-20, 00:38:00,VALID,917.758,VALID,0,VALID,98.6816,VALID,0,VALID,19.9089,VALID,24,VALID,0.666131,
2002-05-20, 00:39:00,VALID,917.746,VALID,0,VALID,98.6714,VALID,0.0339617,VALID,19.8988,VALID,24,VALID,0.779139,
2002-05-20, 00:40:01,VALID,917.727,VALID,0,VALID,98.585,VALID,0.0169808,VALID,19.8667,VALID,24,VALID,0.969238,
2002-05-20, 00:41:00,VALID,917.73,VALID,0,VALID,98.4807,VALID,0.0169808,VALID,19.7944,VALID,23,VALID,0.831081,
2002-05-20, 00:42:01,VALID,917.727,VALID,0,VALID,98.412,VALID,0,VALID,19.7427,VALID,30,VALID,1.10938,
2002-05-20, 00:43:00,VALID,917.718,VALID,0,VALID,98.4413,VALID,0.0339617,VALID,19.7074,VALID,26,VALID,0.946135,
2002-05-20, 00:44:01,VALID,917.725,VALID,0,VALID,98.4425,VALID,0.0339617,VALID,19.7049,VALID,24,VALID,1.02877,
2002-05-20, 00:45:00,VALID,917.734,VALID,0,VALID,98.4705,VALID,0,VALID,19.6856,VALID,28,VALID,1.03998,
2002-05-20, 00:46:00,VALID,917.749,VALID,0,VALID,98.4578,VALID,0.0169808,VALID,19.6955,VALID,32,VALID,1.26753,
2002-05-20, 00:47:00,VALID,917.749,VALID,0,VALID,98.5328,VALID,0.0169808,VALID,19.7082,VALID,20,VALID,1.06155,
2002-05-20, 00:48:00,VALID,917.727,VALID,0,VALID,98.4896,VALID,0.0169808,VALID,19.7184,VALID,28,VALID,0.932221,
2002-05-20, 00:49:01,VALID,917.713,VALID,0,VALID,98.5099,VALID,0.0169808,VALID,19.698,VALID,33,VALID,1.03618,
2002-05-20, 00:50:00,VALID,917.676,VALID,0,VALID,98.4718,VALID,0.0339617,VALID,19.7109,VALID,15,VALID,0.619449,
2002-05-20, 00:51:01,VALID,917.641,VALID,0,VALID,98.5227,VALID,0.0509425,VALID,19.7141,VALID,44,VALID,0.762957,
2002-05-20, 00:52:00,VALID,917.594,VALID,0,VALID,98.4705,VALID,0.0169808,VALID,19.7181,VALID,78,VALID,0.570772,
2002-05-20, 00:53:00,VALID,917.558,VALID,0,VALID,98.4095,VALID,0,VALID,19.7047,VALID,87,VALID,0.858953,
2002-05-20, 00:54:01,VALID,917.526,VALID,0,VALID,98.4095,VALID,0.0169808,VALID,19.6684,VALID,94,VALID,0.823486,
2002-05-20, 00:55:01,VALID,917.485,VALID,0,VALID,98.4527,VALID,0,VALID,19.6754,VALID,100,VALID,0.746622,
2002-05-20, 00:56:01,VALID,917.48,VALID,0,VALID,98.4794,VALID,0.0169808,VALID,19.6692,VALID,101,VALID,0.678865,
2002-05-20, 00:57:00,VALID,917.471,VALID,0,VALID,98.5341,VALID,0.0169808,VALID,19.6751,VALID,107,VALID,0.635691,
2002-05-20, 00:58:01,VALID,917.454,VALID,0,VALID,98.6078,VALID,0,VALID,19.692,VALID,120,VALID,0.477706,
2002-05-20, 00:59:00,VALID,917.444,VALID,0,VALID,98.632,VALID,0.0339617,VALID,19.7074,VALID,133,VALID,0.329504,
2002-05-20, 01:00:00,VALID,917.428,VALID,0,VALID,98.6562,VALID,0.0339617,VALID,19.7149,VALID,114,VALID,0.537373,
2002-05-20, 01:01:00,VALID,917.423,VALID,0,VALID,98.6676,VALID,0.0509425,VALID,19.734,VALID,114,VALID,0.412642,
2002-05-20, 01:02:00,VALID,917.404,VALID,0,VALID,98.6867,VALID,0.0339617,VALID,19.7338,VALID,115,VALID,0.361909,
2002-05-20, 01:03:01,VALID,917.37,VALID,0,VALID,98.6676,VALID,0.0169808,VALID,19.7372,VALID,114,VALID,0.225535,
2002-05-20, 01:04:00,VALID,917.352,VALID,0,VALID,98.6727,VALID,0.0339617,VALID,19.7241,VALID,114,VALID,0.234581,
2002-05-20, 01:05:01,VALID,917.334,VALID,0,VALID,98.7045,VALID,0,VALID,19.7179,VALID,114,VALID,0.198933,
2002-05-20, 01:06:00,VALID,917.314,VALID,0,VALID,98.6994,VALID,0,VALID,19.7248,VALID,114,VALID,0.169347,
2002-05-20, 01:07:00,VALID,917.302,VALID,0,VALID,98.7337,VALID,0.0339617,VALID,19.7174,VALID,114,VALID,0.0187922,
2002-05-20, 01:08:01,VALID,917.279,VALID,0,VALID,98.7337,VALID,0.0679233,VALID,19.7469,VALID,114,VALID,0,
2002-05-20, 01:09:01,VALID,917.275,VALID,0,VALID,98.7172,VALID,-0.0169808,VALID,19.7372,VALID,114,VALID,0,
2002-05-20, 01:10:01,VALID,917.255,VALID,0,VALID,98.6905,VALID,0,VALID,19.7345,VALID,114,VALID,0,
2002-05-20, 01:11:00,VALID,917.236,VALID,0,VALID,98.6956,VALID,-0.0509425,VALID,19.7574,VALID,114,VALID,0,
2002-05-20, 01:12:01,VALID,917.22,VALID,0,VALID,98.6918,VALID,-0.0169808,VALID,19.7536,VALID,114,VALID,0,
2002-05-20, 01:13:00,VALID,917.182,VALID,0,VALID,98.6498,VALID,0.0169808,VALID,19.7504,VALID,114,VALID,0,
2002-05-20, 01:14:00,VALID,917.169,VALID,0,VALID,98.5722,VALID,0,VALID,19.7211,VALID,114,VALID,0,
2002-05-20, 01:15:00,VALID,917.163,VALID,0,VALID,98.5532,VALID,0,VALID,19.6823,VALID,114,VALID,0,
2002-05-20, 01:16:00,VALID,917.14,VALID,0,VALID,98.6625,VALID,0,VALID,19.6893,VALID,114,VALID,0.499367,
2002-05-20, 01:17:01,VALID,917.149,VALID,0,VALID,98.6371,VALID,0,VALID,19.6793,VALID,115,VALID,0.554893,
2002-05-20, 01:18:00,VALID,917.135,VALID,0,VALID,98.5761,VALID,0,VALID,19.6798,VALID,126,VALID,0.550781,
2002-05-20, 01:19:01,VALID,917.128,VALID,0,VALID,98.5074,VALID,0,VALID,19.6374,VALID,134,VALID,0.610328,
2002-05-20, 01:20:01,VALID,917.125,VALID,0,VALID,98.4781,VALID,0,VALID,19.6147,VALID,144,VALID,0.74954,
2002-05-20, 01:21:00,VALID,917.116,VALID,0,VALID,98.4171,VALID,-0.0169808,VALID,19.5924,VALID,154,VALID,0.733742,
2002-05-20, 01:22:01,VALID,917.093,VALID,0,VALID,98.4006,VALID,0.0169808,VALID,19.54,VALID,155,VALID,0.958008,
2002-05-20, 01:23:00,VALID,917.06,VALID,0,VALID,98.4336,VALID,-0.0169808,VALID,19.5405,VALID,155,VALID,1.1761,
2002-05-20, 01:24:01,VALID,917.04,VALID,0,VALID,98.4692,VALID,-0.101885,VALID,19.5347,VALID,148,VALID,1.28988,
2002-05-20, 01:25:00,VALID,917.041,VALID,0,VALID,98.5112,VALID,-0.101885,VALID,19.5322,VALID,143,VALID,1.22882,
2002-05-20, 01:26:01,VALID,917.05,VALID,0,VALID,98.5315,VALID,-0.101885,VALID,19.5322,VALID,135,VALID,1.01524,
2002-05-20, 01:27:00,VALID,917.075,VALID,0,VALID,98.5137,VALID,-0.118866,VALID,19.523,VALID,139,VALID,0.971278,
2002-05-20, 01:28:00,VALID,917.097,VALID,0,VALID,98.5557,VALID,-0.101885,VALID,19.5066,VALID,141,VALID,1.28991,
2002-05-20, 01:29:00,VALID,917.116,VALID,0,VALID,98.5964,VALID,-0.135847,VALID,19.5069,VALID,146,VALID,0.840672,
2002-05-20, 01:30:00,VALID,917.129,VALID,0,VALID,98.5646,VALID,-0.101885,VALID,19.5069,VALID,143,VALID,0.618243,
2002-05-20, 01:31:01,VALID,917.135,VALID,0,VALID,98.6206,VALID,-0.118866,VALID,19.5039,VALID,140,VALID,0.69449,
2002-05-20, 01:32:00,VALID,917.127,VALID,0,VALID,98.6498,VALID,-0.152827,VALID,19.4935,VALID,155,VALID,0.585526,
2002-05-20, 01:33:01,VALID,917.102,VALID,0,VALID,98.6574,VALID,-0.152827,VALID,19.5042,VALID,156,VALID,0.319741,
2002-05-20, 01:34:01,VALID,917.073,VALID,0,VALID,98.6676,VALID,-0.101885,VALID,19.4942,VALID,157,VALID,0.211857,
2002-05-20, 01:35:00,VALID,917.063,VALID,0,VALID,98.6651,VALID,-0.118866,VALID,19.4773,VALID,155,VALID,0.217272,
2002-05-20, 01:36:01,VALID,917.036,VALID,0,VALID,98.6511,VALID,-0.118866,VALID,19.4778,VALID,146,VALID,0.596436,
2002-05-20, 01:37:00,VALID,916.999,VALID,0,VALID,98.6727,VALID,-0.118866,VALID,19.4778,VALID,150,VALID,0.866132,
2002-05-20, 01:38:01,VALID,916.974,VALID,0,VALID,98.6752,VALID,-0.118866,VALID,19.4681,VALID,146,VALID,0.922697,
2002-05-20, 01:39:01,VALID,916.946,VALID,0,VALID,98.632,VALID,-0.0339617,VALID,19.4545,VALID,132,VALID,0.700247,
2002-05-20, 01:40:01,VALID,916.921,VALID,0,VALID,98.6422,VALID,0,VALID,19.4209,VALID,124,VALID,0.640244,
2002-05-20, 01:41:00,VALID,916.929,VALID,0,VALID,98.674,VALID,-0.0169808,VALID,19.4117,VALID,107,VALID,1.21025,
2002-05-20, 01:42:00,VALID,916.919,VALID,0,VALID,98.6981,VALID,0,VALID,19.4083,VALID,104,VALID,0.868666,
2002-05-20, 01:43:01,VALID,916.931,VALID,0,VALID,98.6104,VALID,0,VALID,19.3951,VALID,93,VALID,0.847775,
2002-05-20, 01:44:00,VALID,916.933,VALID,0,VALID,98.5417,VALID,-0.0169808,VALID,19.3797,VALID,102,VALID,0.782517,
2002-05-20, 01:45:01,VALID,916.926,VALID,0,VALID,98.4756,VALID,0.0169808,VALID,19.3499,VALID,95,VALID,0.740543,
2002-05-20, 01:46:00,VALID,916.935,VALID,0,VALID,98.4222,VALID,-0.0169808,VALID,19.3442,VALID,95,VALID,0.838816,
2002-05-20, 01:47:01,VALID,916.923,VALID,0,VALID,98.2709,VALID,0,VALID,19.3081,VALID,90,VALID,0.861281,
2002-05-20, 01:48:00,VALID,916.921,VALID,0,VALID,98.2899,VALID,-0.0169808,VALID,19.2855,VALID,75,VALID,1.14131,
2002-05-20, 01:49:01,VALID,916.886,VALID,0,VALID,98.2543,VALID,0,VALID,19.2763,VALID,62,VALID,0.94489,
2002-05-20, 01:50:01,VALID,916.877,VALID,0,VALID,98.2416,VALID,-0.0169808,VALID,19.2274,VALID,47,VALID,0.960693,
2002-05-20, 01:51:00,VALID,916.885,VALID,0,VALID,98.3052,VALID,0,VALID,19.1958,VALID,30,VALID,0.673775,
2002-05-20, 01:52:01,VALID,916.893,VALID,0,VALID,98.4247,VALID,-0.0509425,VALID,19.1824,VALID,30,VALID,0.45148,
2002-05-20, 01:53:01,VALID,916.899,VALID,0,VALID,98.4438,VALID,-0.0169808,VALID,19.17,VALID,49,VALID,0.385896,
2002-05-20, 01:54:01,VALID,916.913,VALID,0,VALID,98.487,VALID,0,VALID,19.1531,VALID,83,VALID,0.749428,
2002-05-20, 01:55:00,VALID,916.923,VALID,0,VALID,98.4858,VALID,-0.0169808,VALID,19.1342,VALID,104,VALID,0.722426,
2002-05-20, 01:56:01,VALID,916.945,VALID,0,VALID,98.5252,VALID,-0.0339617,VALID,19.0922,VALID,111,VALID,0.644637,
2002-05-20, 01:57:01,VALID,916.931,VALID,0,VALID,98.6193,VALID,-0.0509425,VALID,19.0632,VALID,115,VALID,0.597538,
2002-05-20, 01:58:01,VALID,916.914,VALID,0,VALID,98.7032,VALID,-0.0339617,VALID,19.0537,VALID,124,VALID,0.714316,
2002-05-20, 01:59:01,VALID,916.887,VALID,0,VALID,98.7808,VALID,-0.0169808,VALID,19.047,VALID,129,VALID,0.808388,
2002-05-20, 02:00:01,VALID,916.847,VALID,0,VALID,98.8329,VALID,-0.0339617,VALID,19.0535,VALID,135,VALID,0.774054,
2002-05-20, 02:01:01,VALID,916.801,VALID,0,VALID,98.9232,VALID,-0.0679233,VALID,19.0664,VALID,138,VALID,0.886624,
2002-05-20, 02:02:01,VALID,916.75,VALID,0,VALID,98.9957,VALID,-0.0339617,VALID,19.1049,VALID,140,VALID,0.936351,
2002-05-20, 02:03:01,VALID,916.724,VALID,0,VALID,99.0377,VALID,-0.0169808,VALID,19.134,VALID,134,VALID,0.849873,
2002-05-20, 02:04:01,VALID,916.705,VALID,0,VALID,99.0415,VALID,-0.0509425,VALID,19.1536,VALID,116,VALID,0.621094,
2002-05-20, 02:05:01,VALID,916.704,VALID,0,VALID,99.0351,VALID,-0.0339617,VALID,19.1501,VALID,122,VALID,1.08214,
2002-05-20, 02:06:01,VALID,916.713,VALID,0,VALID,99.0542,VALID,-0.0339617,VALID,19.1536,VALID,129,VALID,0.706003,
2002-05-20, 02:07:01,VALID,916.727,VALID,0,VALID,99.0796,VALID,0,VALID,19.1732,VALID,121,VALID,1.07401,
2002-05-20, 02:08:01,VALID,916.744,VALID,0,VALID,99.0949,VALID,-0.0169808,VALID,19.1797,VALID,124,VALID,1.03773,
2002-05-20, 02:09:01,VALID,916.767,VALID,0,VALID,99.1012,VALID,-0.0169808,VALID,19.1769,VALID,126,VALID,1.07858,
2002-05-20, 02:10:01,VALID,916.774,VALID,0,VALID,99.1076,VALID,0,VALID,19.1765,VALID,122,VALID,0.719595,
2002-05-20, 02:11:01,VALID,916.773,VALID,0,VALID,99.1203,VALID,0,VALID,19.17,VALID,144,VALID,0.341856,
2002-05-20, 02:12:01,VALID,916.749,VALID,0,VALID,99.0974,VALID,-0.0339617,VALID,19.1434,VALID,101,VALID,0.527872,
2002-05-20, 02:13:01,VALID,916.714,VALID,0,VALID,99.1,VALID,0,VALID,19.1345,VALID,101,VALID,0.775905,
2002-05-20, 02:14:01,VALID,916.705,VALID,0,VALID,99.119,VALID,0,VALID,19.1183,VALID,118,VALID,0.968339,
2002-05-20, 02:15:01,VALID,916.689,VALID,0,VALID,99.1534,VALID,0,VALID,19.1273,VALID,114,VALID,0.713605,
2002-05-20, 02:16:01,VALID,916.672,VALID,0,VALID,99.1775,VALID,-0.0169808,VALID,19.1308,VALID,119,VALID,0.550551,
2002-05-20, 02:17:00,VALID,916.674,VALID,0,VALID,99.1839,VALID,-0.0169808,VALID,19.1308,VALID,123,VALID,0.653505,
2002-05-20, 02:18:00,VALID,916.687,VALID,0,VALID,99.1902,VALID,-0.0169808,VALID,19.1538,VALID,128,VALID,0.548828,
2002-05-20, 02:19:00,VALID,916.723,VALID,0,VALID,99.2093,VALID,0,VALID,19.1534,VALID,124,VALID,0.649704,
2002-05-20, 02:20:00,VALID,916.772,VALID,0,VALID,99.2144,VALID,0,VALID,19.173,VALID,108,VALID,0.724712,
2002-05-20, 02:21:00,VALID,916.807,VALID,0,VALID,99.2284,VALID,0.0169808,VALID,19.1663,VALID,97,VALID,0.680099,
2002-05-20, 02:22:00,VALID,916.842,VALID,0,VALID,99.2246,VALID,-0.0169808,VALID,19.1693,VALID,84,VALID,0.567645,
2002-05-20, 02:23:00,VALID,916.867,VALID,0,VALID,99.2386,VALID,0,VALID,19.1723,VALID,77,VALID,0.530561,
2002-05-20, 02:24:00,VALID,916.9,VALID,0,VALID,99.2576,VALID,-0.0339617,VALID,19.206,VALID,98,VALID,0.545397,
2002-05-20, 02:25:00,VALID,916.912,VALID,0,VALID,99.2742,VALID,0,VALID,19.2244,VALID,105,VALID,0.611742,
2002-05-20, 02:26:00,VALID,916.919,VALID,0,VALID,99.2691,VALID,-0.0169808,VALID,19.2406,VALID,112,VALID,0.708404,
2002-05-20, 02:27:00,VALID,916.926,VALID,0,VALID,99.278,VALID,0,VALID,19.2505,VALID,112,VALID,0.927837,
2002-05-20, 02:28:00,VALID,916.913,VALID,0,VALID,99.2653,VALID,0,VALID,19.2408,VALID,115,VALID,0.926192,
2002-05-20, 02:29:00,VALID,916.9,VALID,0,VALID,99.2437,VALID,-0.0509425,VALID,19.2316,VALID,119,VALID,1.08098,
2002-05-20, 02:30:00,VALID,916.877,VALID,0,VALID,99.2449,VALID,-0.0169808,VALID,19.218,VALID,122,VALID,1.08318,
2002-05-20, 02:31:00,VALID,916.836,VALID,0,VALID,99.2335,VALID,0,VALID,19.2053,VALID,118,VALID,1.0796,
2002-05-20, 02:32:00,VALID,916.805,VALID,0,VALID,99.2169,VALID,0,VALID,19.2055,VALID,120,VALID,0.831543,
2002-05-20, 02:33:00,VALID,916.755,VALID,0,VALID,99.1966,VALID,-0.0339617,VALID,19.1794,VALID,114,VALID,0.895904,
2002-05-20, 02:34:00,VALID,916.734,VALID,0,VALID,99.1763,VALID,0,VALID,19.1698,VALID,111,VALID,0.764186,
2002-05-20, 02:35:00,VALID,916.742,VALID,0,VALID,99.1534,VALID,0,VALID,19.1566,VALID,105,VALID,0.98602,
2002-05-20, 02:36:00,VALID,916.739,VALID,0,VALID,99.1394,VALID,-0.0169808,VALID,19.1504,VALID,106,VALID,0.998857,
2002-05-20, 02:37:00,VALID,916.733,VALID,0,VALID,99.1368,VALID,-0.0169808,VALID,19.1501,VALID,124,VALID,0.554054,
2002-05-20, 02:38:00,VALID,916.729,VALID,0,VALID,99.1394,VALID,0,VALID,19.1735,VALID,133,VALID,0.679265,
2002-05-20, 02:39:00,VALID,916.713,VALID,0,VALID,99.1635,VALID,0,VALID,19.1926,VALID,137,VALID,0.866951,
2002-05-20, 02:40:00,VALID,916.714,VALID,0,VALID,99.1775,VALID,-0.0169808,VALID,19.2219,VALID,144,VALID,0.714316,
2002-05-20, 02:41:00,VALID,916.716,VALID,0,VALID,99.1775,VALID,0,VALID,19.2378,VALID,140,VALID,0.647204,
2002-05-20, 02:42:00,VALID,916.745,VALID,0,VALID,99.1826,VALID,0,VALID,19.2473,VALID,152,VALID,0.533512,
2002-05-20, 02:43:00,VALID,916.788,VALID,0,VALID,99.189,VALID,-0.0169808,VALID,19.2666,VALID,165,VALID,0.466463,
2002-05-20, 02:44:00,VALID,916.832,VALID,0,VALID,99.189,VALID,-0.0339617,VALID,19.2994,VALID,184,VALID,0.526884,
2002-05-20, 02:45:00,VALID,916.907,VALID,0,VALID,99.203,VALID,-0.0169808,VALID,19.3116,VALID,217,VALID,0.425887,
2002-05-20, 02:46:00,VALID,916.954,VALID,0,VALID,99.2055,VALID,-0.0169808,VALID,19.3218,VALID,220,VALID,0.669678,
2002-05-20, 02:47:00,VALID,916.991,VALID,0,VALID,99.1941,VALID,-0.0339617,VALID,19.332,VALID,205,VALID,0.647171,
2002-05-20, 02:48:00,VALID,916.996,VALID,0,VALID,99.1966,VALID,-0.0339617,VALID,19.3444,VALID,221,VALID,0.520354,
2002-05-20, 02:49:00,VALID,917.006,VALID,0,VALID,99.1877,VALID,-0.0169808,VALID,19.3578,VALID,219,VALID,0.533923,
2002-05-20, 02:50:00,VALID,916.987,VALID,0,VALID,99.1928,VALID,-0.0169808,VALID,19.3608,VALID,211,VALID,0.381098,
2002-05-20, 02:51:00,VALID,916.97,VALID,0,VALID,99.2017,VALID,-0.0169808,VALID,19.3832,VALID,177,VALID,0.480009,
2002-05-20, 02:52:00,VALID,916.942,VALID,0,VALID,99.1979,VALID,-0.0679233,VALID,19.3966,VALID,147,VALID,0.412584,
2002-05-20, 02:53:00,VALID,916.925,VALID,0,VALID,99.1979,VALID,-0.0679233,VALID,19.3993,VALID,156,VALID,0.560843,
2002-05-20, 02:54:00,VALID,916.926,VALID,0,VALID,99.1953,VALID,-0.0169808,VALID,19.4182,VALID,156,VALID,0.707137,
2002-05-20, 02:55:00,VALID,916.941,VALID,0,VALID,99.1915,VALID,0,VALID,19.4252,VALID,161,VALID,0.794408,
2002-05-20, 02:56:00,VALID,916.948,VALID,0,VALID,99.1801,VALID,0,VALID,19.4579,VALID,162,VALID,0.709704,
2002-05-20, 02:57:00,VALID,916.963,VALID,0,VALID,99.1928,VALID,0.0169808,VALID,19.4766,VALID,173,VALID,0.97218,
2002-05-20, 02:58:00,VALID,916.97,VALID,0,VALID,99.1839,VALID,-0.0169808,VALID,19.5024,VALID,159,VALID,0.872243,
2002-05-20, 02:59:00,VALID,916.965,VALID,0,VALID,99.1788,VALID,0,VALID,19.5308,VALID,160,VALID,0.869088,
2002-05-20, 03:00:00,VALID,916.956,VALID,0,VALID,99.1597,VALID,0,VALID,19.5571,VALID,149,VALID,0.918701,
2002-05-20, 03:01:00,VALID,916.952,VALID,0,VALID,99.1343,VALID,0,VALID,19.5832,VALID,141,VALID,0.452492,
2002-05-20, 03:02:00,VALID,916.932,VALID,0,VALID,99.1101,VALID,-0.0169808,VALID,19.5991,VALID,126,VALID,0.477796,
2002-05-20, 03:03:00,VALID,916.916,VALID,0,VALID,99.0555,VALID,-0.0169808,VALID,19.6058,VALID,103,VALID,1.13076,
2002-05-20, 03:04:00,VALID,916.899,VALID,0,VALID,98.9868,VALID,-0.0169808,VALID,19.6028,VALID,97,VALID,1.19588,
2002-05-20, 03:05:00,VALID,916.891,VALID,0,VALID,98.9308,VALID,-0.0169808,VALID,19.5986,VALID,103,VALID,1.17601,
2002-05-20, 03:06:00,VALID,916.881,VALID,0,VALID,98.88,VALID,-0.0169808,VALID,19.6152,VALID,95,VALID,1.01014,
2002-05-20, 03:07:00,VALID,916.873,VALID,0,VALID,98.8113,VALID,-0.0169808,VALID,19.622,VALID,90,VALID,1.26823,
2002-05-20, 03:08:00,VALID,916.871,VALID,0,VALID,98.7096,VALID,0,VALID,19.6152,VALID,87,VALID,1.35494,
2002-05-20, 03:09:00,VALID,916.857,VALID,0,VALID,98.6167,VALID,0,VALID,19.5792,VALID,84,VALID,1.20744,
2002-05-20, 03:10:00,VALID,916.841,VALID,0,VALID,98.5735,VALID,-0.0169808,VALID,19.5539,VALID,87,VALID,1.11061,
2002-05-20, 03:11:00,VALID,916.826,VALID,0,VALID,98.5621,VALID,0,VALID,19.5149,VALID,89,VALID,0.897485,
2002-05-20, 03:12:00,VALID,916.822,VALID,0,VALID,98.5684,VALID,0,VALID,19.4823,VALID,71,VALID,0.588235,
2002-05-20, 03:13:00,VALID,916.817,VALID,0,VALID,98.5875,VALID,0,VALID,19.4664,VALID,58,VALID,0.728041,
2002-05-20, 03:14:00,VALID,916.808,VALID,0,VALID,98.5875,VALID,-0.0169808,VALID,19.4445,VALID,60,VALID,0.822021,
2002-05-20, 03:15:00,VALID,916.81,VALID,0,VALID,98.5506,VALID,0,VALID,19.3954,VALID,55,VALID,0.904983,
2002-05-20, 03:16:00,VALID,916.826,VALID,0,VALID,98.5163,VALID,0,VALID,19.366,VALID,59,VALID,1.1984,
2002-05-20, 03:17:00,VALID,916.831,VALID,0,VALID,98.5176,VALID,-0.0169808,VALID,19.3447,VALID,73,VALID,1.2905,
2002-05-20, 03:18:00,VALID,916.828,VALID,0,VALID,98.5239,VALID,-0.0169808,VALID,19.3049,VALID,73,VALID,1.36643,
2002-05-20, 03:19:00,VALID,916.791,VALID,0,VALID,98.5443,VALID,0,VALID,19.2756,VALID,73,VALID,1.35983,
2002-05-20, 03:20:00,VALID,916.758,VALID,0,VALID,98.6117,VALID,-0.0169808,VALID,19.2632,VALID,75,VALID,1.52597,
2002-05-20, 03:21:00,VALID,916.729,VALID,0,VALID,98.6384,VALID,0,VALID,19.2602,VALID,83,VALID,1.58026,
2002-05-20, 03:22:00,VALID,916.704,VALID,0,VALID,98.6244,VALID,-0.0169808,VALID,19.2343,VALID,91,VALID,1.21938,
2002-05-20, 03:23:00,VALID,916.702,VALID,0,VALID,98.6536,VALID,-0.0339617,VALID,19.2348,VALID,115,VALID,0.9375,
2002-05-20, 03:24:00,VALID,916.708,VALID,0,VALID,98.7108,VALID,0,VALID,19.2147,VALID,117,VALID,0.95477,
2002-05-20, 03:25:00,VALID,916.729,VALID,0,VALID,98.7197,VALID,0,VALID,19.2147,VALID,115,VALID,1.11585,
2002-05-20, 03:26:00,VALID,916.753,VALID,0,VALID,98.763,VALID,0,VALID,19.2281,VALID,106,VALID,1.03447,
2002-05-20, 03:27:00,VALID,916.782,VALID,0,VALID,98.791,VALID,-0.0339617,VALID,19.2209,VALID,105,VALID,0.889992,
2002-05-20, 03:28:00,VALID,916.778,VALID,0,VALID,98.824,VALID,0,VALID,19.2473,VALID,107,VALID,0.693359,
2002-05-20, 03:29:00,VALID,916.786,VALID,0,VALID,98.8011,VALID,0,VALID,19.2507,VALID,63,VALID,0.574958,
2002-05-20, 03:30:00,VALID,916.765,VALID,0,VALID,98.7897,VALID,0,VALID,19.2309,VALID,32,VALID,0.903783,
2002-05-20, 03:31:00,VALID,916.738,VALID,0,VALID,98.7719,VALID,0,VALID,19.2251,VALID,40,VALID,0.823191,
2002-05-20, 03:32:00,VALID,916.725,VALID,0,VALID,98.7528,VALID,0,VALID,19.1916,VALID,46,VALID,0.931593,
2002-05-20, 03:33:00,VALID,916.718,VALID,0,VALID,98.7452,VALID,0,VALID,19.1827,VALID,56,VALID,0.986673,
2002-05-20, 03:34:00,VALID,916.712,VALID,0,VALID,98.7859,VALID,-0.0169808,VALID,19.1829,VALID,59,VALID,1.08509,
2002-05-20, 03:35:00,VALID,916.72,VALID,0,VALID,98.7604,VALID,-0.0169808,VALID,19.1861,VALID,60,VALID,0.823153,